Location: Bottens
(46.6171°N, 6.6605°E)
Time: 09:35:35
(UTC+00:00)

Cosmos 1825 - Pass Details

Date: 31 October 2021
Orbit: 501 x 504 km, 82.5° (Epoch: 28 November)

Event Time Altitude Azimuth Distance (km) Brightness Sun altitude
Rises 17:17:51 0° 358° (N) 2,610 5.7 -10.5°
Reaches altitude 10° 17:20:05 10° 7° (N) 1,721 4.7 -10.9°
Maximum altitude 17:23:36 37° 76° (ENE) 801 2.6 -11.5°
Drops below altitude 10° 17:27:06 10° 145° (SE) 1,709 4.6 -12.1°
Sets 17:29:20 0° 153° (SSE) 2,589 5.6 -12.5°
